GW2918 Weather Reports


time (UTC)temp
F
wind
direction
speed
knots
gust
knots
rain 1hr
in
rain 24hr
in
rain mn
in
humidity
%
barometer
mb
20260904234756 68 269 0.0 2.6 0.00 0.00 0.00 86 1014.9
20260904233753 69 17 1.7 2.6 0.00 0.00 0.00 85 1014.7
20260904232751 69 340 0.9 1.7 0.00 0.00 0.00 87 1014.5
20260904231748 70 100 0.0 0.9 0.00 0.00 0.00 83 1014.9
20260904230744 70 0 0.0 0.0 0.00 0.00 0.00 84 1014.9
20260904225744 70 180 0.0 0.9 0.00 0.00 0.00 82 1014.6
20260904224742 71 19 0.9 1.7 0.00 0.00 0.00 81 1014.9
20260904223737 71 15 0.0 0.9 0.00 0.00 0.00 80 1014.9
20260904222734 71 37 0.0 2.6 0.00 0.00 0.00 79 1014.7
20260904221735 71 0 1.7 3.5 0.00 0.00 0.00 77 1014.8
20260904220730 72 50 1.7 2.6 0.00 0.00 0.00 77 1014.8
20260904215731 72 10 0.0 3.5 0.00 0.00 0.00 76 1015.0
20260904214727 73 325 4.3 5.2 0.00 0.00 0.00 74 1014.8
20260904213727 74 348 3.5 5.2 0.00 0.00 0.00 73 1014.9
20260904212724 75 349 3.5 5.2 0.00 0.00 0.00 74 1014.9
20260904211719 75 324 2.6 6.1 0.00 0.00 0.00 74 1014.8
20260904210714 75 55 2.6 5.2 0.00 0.00 0.00 73 1014.9
20260904205711 76 354 2.6 7.0 0.00 0.00 0.00 73 1014.6
20260904204709 75 57 1.7 5.2 0.00 0.00 0.00 75 1014.9
20260904203707 77 249 1.7 2.6 0.00 0.00 0.00 74 1014.9
20260904202705 75 323 2.6 6.1 0.00 0.00 0.00 73 1014.9
20260904201701 76 339 0.9 2.6 0.00 0.00 0.00 74 1014.7
20260904200702 76 1 4.3 7.8 0.00 0.00 0.00 71 1015.1
20260904195701 74 7 3.5 5.2 0.00 0.00 0.00 75 1015.3
20260904194701 74 0 6.1 7.0 0.00 0.00 0.00 75 1015.4
20260904193656 74 53 1.7 8.7 0.00 0.00 0.00 76 1015.5
20260904192653 76 17 3.5 8.7 0.00 0.00 0.00 74 1015.6
20260904191651 76 359 3.5 3.5 0.00 0.00 0.00 73 1015.4
20260904190649 75 332 1.7 3.5 0.00 0.00 0.00 76 1015.6
20260904185647 74 347 3.5 5.2 0.00 0.00 0.00 75 1016.0
20260904184645 75 18 0.0 4.3 0.00 0.00 0.00 76 1015.8
20260904183643 75 343 2.6 3.5 0.00 0.00 0.00 78 1016.0
20260904182638 74 271 0.9 5.2 0.00 0.00 0.00 75 1016.4
20260904181635 75 75 0.9 4.3 0.00 0.00 0.00 75 1016.3
20260904180630 75 196 1.7 2.6 0.00 0.00 0.00 75 1016.4
20260904175631 75 53 4.3 6.1 0.00 0.00 0.00 76 1016.3
20260904174629 75 286 2.6 5.2 0.00 0.00 0.00 74 1016.4
20260904173627 74 10 3.5 9.6 0.00 0.00 0.00 74 1016.5
20260904172624 74 338 1.7 6.1 0.00 0.00 0.00 78 1016.6
20260904171624 73 0 4.3 5.2 0.00 0.00 0.00 77 1016.7
20260904170622 72 318 2.6 7.0 0.00 0.00 0.00 79 1016.7
20260904165621 74 59 5.2 7.8 0.00 0.00 0.00 78 1016.7
20260904164621 75 55 7.0 7.0 0.00 0.00 0.00 78 1016.8
20260904163618 73 305 2.6 7.8 0.00 0.00 0.00 79 1016.9
20260904162613 73 349 5.2 5.2 0.00 0.00 0.00 79 1016.6
20260904161609 72 292 1.7 7.0 0.00 0.00 0.00 79 1016.9
20260904160606 73 299 4.3 7.8 0.00 0.00 0.00 79 1016.7
20260904155601 74 311 2.6 7.8 0.00 0.00 0.00 76 1016.5
20260904154601 75 57 3.5 3.5 0.00 0.00 0.00 77 1016.7
20260904153601 73 329 1.7 5.2 0.00 0.00 0.00 78 1016.8
20260904152559 72 310 0.0 5.2 0.00 0.00 0.00 82 1016.8
20260904151555 71 353 0.9 7.8 0.00 0.00 0.00 79 1016.9
20260904150555 73 344 1.7 4.3 0.00 0.00 0.00 81 1016.5
20260904145554 72 317 4.3 7.8 0.00 0.00 0.00 83 1016.6
20260904144552 73 346 4.3 6.1 0.00 0.00 0.00 82 1016.6
20260904143549 73 40 4.3 7.0 0.00 0.00 0.00 86 1016.9
20260904142548 72 27 2.6 7.0 0.00 0.00 0.00 86 1016.9
20260904141543 73 350 3.5 4.3 0.00 0.00 0.00 85 1016.9
20260904140539 73 327 0.9 5.2 0.00 0.00 0.00 85 1016.9
20260904135538 73 55 2.6 4.3 0.00 0.00 0.00 80 1016.6
20260904134536 72 275 2.6 4.3 0.00 0.00 0.00 82 1016.5
20260904133537 73 331 2.6 3.5 0.00 0.00 0.00 83 1016.4
20260904132533 73 336 1.7 2.6 0.00 0.00 0.00 85 1016.5
20260904131533 73 89 1.7 2.6 0.00 0.00 0.00 86 1016.4
20260904130528 73 1 0.9 2.6 0.00 0.00 0.00 88 1016.0
20260904125525 72 358 1.7 3.5 0.00 0.00 0.00 88 1016.4
20260904124521 72 221 0.0 2.6 0.00 0.00 0.00 90 1016.4
20260904123516 72 306 1.7 2.6 0.00 0.00 0.00 90 1016.5
20260904122513 70 98 0.0 4.3 0.00 0.00 0.00 93 1016.5
20260904121508 71 4 5.2 6.1 0.00 0.00 0.00 91 1016.5
20260904120506 69 275 0.9 3.5 0.00 0.00 0.00 97 1016.0
20260904115503 68 347 1.7 2.6 0.00 0.00 0.00 98 1016.1
20260904114457 69 326 0.9 3.5 0.00 0.00 0.00 97 1016.4
20260904113452 69 256 0.9 2.6 0.00 0.00 0.00 97 1016.6
20260904112447 67 257 1.7 1.7 0.00 0.00 0.00 99 1016.4
20260904111444 66 315 0.0 1.7 0.00 0.00 0.00 99 1016.4
20260904110445 66 73 0.9 1.7 0.00 0.00 0.00 99 1016.3
20260904105441 66 243 0.0 2.6 0.00 0.00 0.00 99 1016.1
20260904104436 66 307 2.6 3.5 0.00 0.00 0.00 99 1015.9
20260904103434 66 227 0.0 1.7 0.00 0.00 0.00 99 1015.9
20260904102431 66 248 0.0 1.7 0.00 0.00 0.00 99 1015.7
20260904101429 67 19 0.0 1.7 0.00 0.00 0.00 99 1015.8
20260904100426 67 66 0.0 7.8 0.00 0.00 0.00 99 1015.9
20260904095421 67 317 1.7 8.7 0.00 0.00 0.00 99 1015.9
20260904094417 68 333 0.9 2.6 0.00 0.00 0.00 99 1015.8
20260904093413 67 349 0.0 3.5 0.00 0.00 0.00 99 1015.8
20260904092411 68 197 0.0 2.6 0.00 0.00 0.00 99 1015.9
20260904091408 68 65 0.9 1.7 0.00 0.00 0.00 99 1016.0
20260904090405 68 157 1.7 3.5 0.00 0.00 0.00 99 1015.7
20260904085401 67 206 0.9 1.7 0.00 0.00 0.00 99 1016.0
20260904084357 67 314 0.0 1.7 0.00 0.00 0.00 99 1015.6
20260904083355 68 214 0.0 2.6 0.00 0.00 0.00 99 1015.4
20260904082351 68 1 2.6 2.6 0.00 0.00 0.00 99 1015.5
20260904081347 68 288 1.7 2.6 0.00 0.00 0.00 99 1015.3
20260904080344 68 257 1.7 1.7 0.00 0.00 0.00 99 1015.4
20260904075341 67 182 0.0 1.7 0.00 0.00 0.00 99 1015.4
20260904074340 67 88 0.9 0.9 0.00 0.00 0.00 99 1015.2
20260904073337 67 63 0.0 0.9 0.00 0.00 0.00 99 1014.9
20260904072332 67 135 0.0 1.7 0.00 0.00 0.00 99 1015.0
20260904071329 67 147 0.0 1.7 0.00 0.00 0.00 99 1015.1
20260904070328 67 160 0.0 0.9 0.00 0.00 0.00 99 1015.0
20260904065326 67 133 0.0 1.7 0.00 0.00 0.00 99 1014.9
20260904064322 68 170 0.0 1.7 0.00 0.00 0.00 99 1014.9
20260904063320 68 186 0.0 0.9 0.00 0.00 0.00 99 1014.8
20260904062317 67 139 0.0 1.7 0.00 0.00 0.00 99 1014.7
20260904061314 67 147 0.0 1.7 0.00 0.00 0.00 99 1014.8
20260904060311 67 181 0.0 1.7 0.00 0.00 0.00 99 1014.7
20260904055307 67 133 0.9 2.6 0.00 0.00 0.00 99 1014.8
20260904054304 67 113 1.7 1.7 0.00 0.00 0.00 99 1015.0
20260904053259 67 311 0.0 2.6 0.00 0.00 0.00 99 1015.3
20260904052257 68 56 0.0 0.9 0.00 0.00 0.00 99 1015.3
20260904051254 68 182 0.9 2.6 0.00 0.00 0.00 99 1015.5
20260904050252 68 265 0.0 1.7 0.00 0.00 0.00 99 1015.3
20260904045253 68 219 0.0 2.6 0.00 0.00 0.00 99 1015.2
20260904044250 69 266 1.7 1.7 0.00 0.00 0.00 99 1015.4
20260904043248 69 197 0.0 2.6 0.00 0.00 0.00 99 1015.1
20260904042245 69 195 0.0 0.9 0.00 0.00 0.00 99 1015.4
20260904041241 69 356 0.0 0.9 0.00 0.00 0.00 99 1015.2
20260904040238 69 307 0.0 0.9 0.00 0.00 0.00 99 1015.6
20260904035235 70 234 0.0 2.6 0.00 0.26 0.26 99 1015.6
20260904034235 70 246 0.0 2.6 0.00 0.26 0.26 99 1015.7
20260904033233 70 211 1.7 3.5 0.00 0.26 0.26 99 1015.9
20260904032234 70 131 0.0 0.9 0.00 0.26 0.26 99 1015.7
20260904031230 69 249 0.0 0.9 0.00 0.26 0.26 99 1015.7
20260904030227 70 201 1.7 2.6 0.00 0.26 0.26 99 1015.6
20260904025224 70 206 2.6 2.6 0.00 0.26 0.26 99 1015.6
20260904024221 69 215 1.7 1.7 0.00 0.26 0.26 99 1015.6
20260904023219 70 206 1.7 2.6 0.00 0.26 0.26 99 1015.6
20260904022216 69 179 0.9 2.6 0.00 0.26 0.26 99 1015.5
20260904021212 69 118 0.9 1.7 0.00 0.26 0.26 99 1015.6
20260904020207 69 147 0.0 1.7 0.00 0.26 0.26 99 1015.7
20260904015206 69 171 0.0 0.9 0.02 0.26 0.26 99 1015.6
20260904014206 70 50 0.0 0.9 0.00 0.25 0.25 99 1016.0
20260904013204 69 154 0.0 0.9 0.00 0.25 0.25 99 1016.1
20260904012159 70 135 0.0 0.9 0.00 0.25 0.25 99 1016.5
20260904011154 70 126 0.0 0.9 0.00 0.25 0.25 99 1016.4
20260904010151 70 180 0.0 0.9 0.00 0.25 0.25 99 1016.5
20260904005148 70 180 0.9 0.9 0.00 0.25 0.25 99 1016.1
20260904004143 70 145 0.0 1.7 0.00 0.25 0.25 99 1016.3
20260904003141 70 218 0.0 1.7 0.00 0.25 0.25 99 1016.5
20260904002137 70 198 0.0 0.9 0.00 0.25 0.25 99 1016.5
20260904001137 70 157 0.0 0.9 0.00 0.25 0.25 99 1016.3
20260904000134 70 322 0.0 0.0 0.00 0.25 0.25 99 1016.0
20260903235130 70 334 1.7 2.6 0.00 0.25 0.25 99 1016.0